Starlink 1011

operational
NORAD ID: 44717 Int'l Des: 2019-074 Owner: SPXS Country: US Constellation: starlink
LEOCIRCULAR

Starlink 1011について

説明を読み込み中...

リアルタイム位置

3D地球を読み込み中...

次回通過

高度履歴

Altitude vs Time

uPlot chart will show altitude changes over time

軌道要素

1 44717U 19074E 25308.25002315 .00261498 00000-0 94377-3 0 9993
2 44717 53.0475 10.0755 0004344 336.6286 240.1519 15.87413926 5931
Epoch: Nov 4, 2025 • Age: 6 hours

現在のステータス

高度 317.0 km
速度 7.72 km/s
衛星直下点 52.95°N, 110.22°W
打ち上げ日 Nov 11, 2019
運用期間 5.9 years
タイプ internet

技術仕様

分類 Payload
質量 260.00 kg
乾燥質量 248.00 kg
総質量 260.00 kg
長さ 0.20 m
直径 2.80 m
スパン 9.00 m
形状 Box + pan
製造者 SPXS
バスタイプ Starlink
フェーズステータス In Orbit
所有者/国 SPXS/US

大規模コンステレーション

Loading constellations...